SCP
0 0 0 0 0 0 0 0 0 0 0 0 0 0 0 0 0 0 0 0 0 0 0 0 0 0 0 0 0 0 0 0 0 0 0 0 0 0 0 0 0 0 0
0 0 0 0 0 0 0 0 0 0 0 0 0 0 0 0 0 0 0 0 0 0 0 0 0 0 0 0 0 0 0 0 0 0 0 0 0 0 0 0 0 0 0
0 0 0 0 0 0 0 0 0 0 0 0 0 0 0 0 0 0 0 0 0 0 0 0 0 0 0 0 0 0 0 0 0 0 0 0 0 0 0 0 0 0 0
0 0 0 0 0 0 0 0 0 0 0 0 0 0 0 0 0 0 0 0 0 0 0 0 0 0 0 0 0 0 0 0 0 0 0 0 0 0 0 0 0 0 0
0 0 0 0 0 0 0 0 0 0 0 0 0 0 0 0 0 0 0 0 0 0 0 0 0 0 0 0 0 0 0 0 0 0 0 0 0 0 0 0 0 0 0
0 0 0 0 0 0 0 0 0 0 0 0 0 0 0 0 0 0 0 0 0 0 0 0 0 0 0 0 0 0 0 0 0 0 0 0 0 0 0 0 0 0 0
0 0 0 0 0 0 0 0 0 0 0 0 0 0 0 0 0 0 0 0 -0 0 0 0 0 0 0 0 0 0 0 0 0 0 0 0 0 0 0 0 0 0 0
0 0 0 0 0 0 0 0 0 0 0 0 0 0 0 0 0 0 0 0 0 0 0 0 0 0 0 0 0 0 0 0 0 0 0 0 0 0 0 0 0 0 0
0 0 0 0 0 0 0 0 0 0 0 0 0 0 0 0 0 0 0 0 0 0 0 0 0 0 0 0 0 0 0 0 0 0 0 0 0 0 0 0 0 0 0
0 0 0 0 0 0 0 0 0 0 0 0 0 0 0 0 0 0 0 0 0 0 0 0 0 0 0 0 0 0 0 0 0 0 0 0 0 0 0 0 0 0 0
0 0 0 0 0 0 0 0 0 0 0 0 0 0 0 0 0 0 0 0 0 0 0 0 0 0 0 0 0 0 0 0 0 0 0 0 0 0 0 0 0 0 0
0 0 0 0 0 0 0 0 0 0 0 0 0 0 0 0 0 0 0 0 0 0 0 0 0 0 0 0 0 0 0 0 0 0 0 0 0 0 0 0 0 0 0
0 0 0 0 0 0 0 0 0 0 0 0 0 0 0 0 0 0 0 0 0 0 0 0 0 0 0 0 0 0 0 0 0 0 0 0 0 0 0 0 0 0 0
0 0 0 0 0 0 0 0 0 0 0 0 0 0 0 0 0 0 0 0 0 0 0 0 0 0 0 0 0 0 0 0 0 0 0 0 0 0 0 0 0 0 0
0 0 0 0 0 0 0 0 0 0 0 0 0 0 0 0 0 0 0 0 0 0 0 0 0 0 0 0 0 0 0 0 0 0 0 0 0 0 0 0 0 0 0
0 0 0 0 0 0 0 0 0 0 0 0 0 0 0 0 0 0 0 0 0 0 0 0 0 0 0 0 0 0 0 0 0 0 0 0 0 0 0 0 0 0 0
0 0 0 0 0 0 0 0 0 0 0 0 0 0 0 0 0 0 0 0 0 0 0 0 0 0 0 0 0 0 0 0 0 0 0 0 0 0 0 0 0 0 0
0 0 0 0 0 0 0 0 0 0 0 0 0 0 0 0 0 0 0 0 0 0 0 0 0 0 0 0 0 0 0 0 0 0 0 0 0 0 0 0 0 0 0
0 0 0 0 0 0 0 0 0 0 0 0 0 0 0 0 0 0 0 0 0 0 0 0 0 0 0 0 0 0 0 0 0 0 0 0 0 0 0 0 0 0 0
0 0 0 0 0 0 0 0 0 0 0 0 0 0 0 0 0 0 0 0 0 0 0 0 0 0 0 0 0 0 0 0 0 0 0 0 0 0 0 0 0 0 0
0 0 0 0 0 0 0 0 0 0 0 0 0 0 0 0 0 0 0 0 0 0 0 0 0 0 0 0 0 0 0 0 0 0 0 0 0 0 0 0 0 0 0
0 0 0 0 0 0 0 0 0 0 0 0 0 0 0 0 0 0 0 0 0 0 0 0 0 0 0 0 0 0 0 0 0 0 0 0 0 0 0 0 0 0 0
0 0 0 0 0 0 0 0 0 0 0 0 0 0 0 0 0 0 0 0 0 0 0 0 0 0 0 0 0 0 0 0 0 0 0 0 0 0 0 0 0 0 0
0 0 0 0 0 0 0 0 0 0 0 0 0 0 0 0 0 0 0 0 0 0 0 0 0 0 -0 -0 0 0 0 0 0 0 0 0 0 0 0 0 0 0 0
0 0 0 0 0 0 0 0 0 0 0 0 0 0 0 0 0 0 0 0 0 0 0 0 0 0 0 0 0 0 0 0 0 0 0 0 0 0 0 0 0 0 0
0 0 0 0 0 0 0 0 0 0 0 0 0 0 0 0 0 0 0 0 0 0 0 0 0 0 0 0 0 0 0 0 0 0 0 0 0 0 0 0 0 0 0
Wind_Speed
6 5 5 4 4 4 4 4 4 3 3 3 3 2 2 2 2 3 2 2 3 2 2 3 2 2 2 2 2 2 2 3 3 1 1 1 1 1 2 2 2 2 2
6 6 6 5 5 4 4 4 4 3 3 3 3 3 2 2 2 2 2 2 2 2 2 2 1 2 3 2 2 2 2 2 3 2 1 1 1 1 1 1 2 2 1
6 6 6 5 5 5 5 4 4 4 3 3 3 3 3 3 2 2 2 2 2 2 2 2 1 3 2 1 2 2 1 2 2 2 0 1 1 1 1 2 2 2 2
7 7 6 6 6 6 5 4 4 4 4 3 3 3 3 3 3 2 3 2 2 2 1 2 2 2 2 2 2 2 2 2 2 2 1 1 1 1 1 1 2 2 2
7 7 7 6 5 5 5 4 4 4 4 4 3 3 2 2 3 3 3 3 3 2 1 1 1 2 3 3 2 2 3 2 2 1 0 1 1 1 1 1 1 2 2
7 7 6 5 5 5 5 5 4 4 3 3 4 3 3 2 5 7 5 3 3 2 1 0 0 1 2 2 3 4 4 4 3 2 1 1 2 2 1 1 0 1 2
7 6 6 6 6 6 6 5 5 5 4 4 3 4 3 4 6 6 7 4 3 3 2 1 1 1 1 1 2 3 2 2 4 4 3 3 2 3 2 1 1 1 3
6 6 7 7 6 5 5 6 5 4 4 4 4 4 4 4 6 6 6 4 3 2 2 2 2 1 1 2 2 2 1 1 1 2 3 4 3 3 3 3 2 1 2
7 7 7 8 7 6 6 6 5 4 4 4 4 5 4 4 6 7 6 3 2 2 2 2 2 2 3 4 3 2 0 2 1 0 1 1 1 1 2 1 1 1 2
8 8 7 8 8 8 7 6 4 4 5 4 4 4 5 5 6 7 7 3 2 1 1 1 3 3 3 4 4 3 2 2 1 2 2 3 2 2 1 2 3 2 1
6 6 6 7 7 7 6 5 4 4 4 4 3 3 4 5 6 7 8 4 4 3 2 2 2 3 3 4 4 3 4 2 1 0 1 2 2 2 2 1 2 3 2
5 6 6 6 6 6 6 5 5 5 5 4 3 2 2 3 5 6 8 7 6 4 3 2 2 3 3 2 2 3 3 2 1 1 1 1 1 2 2 1 1 1 2
5 5 5 6 5 6 6 6 4 4 4 4 4 3 2 2 3 6 7 8 8 4 3 4 4 3 2 1 1 3 2 2 2 1 1 2 2 2 2 1 2 1 1
7 6 5 5 5 4 4 5 5 5 5 4 4 4 3 2 2 2 3 3 5 3 2 2 3 2 2 1 1 1 1 2 2 2 2 2 1 1 1 1 1 1 1
6 5 5 5 5 5 4 4 5 5 6 7 6 5 5 5 6 8 6 5 4 4 4 2 1 1 1 0 0 0 0 1 1 1 1 1 1 1 1 1 1 0 0
5 5 4 4 3 4 4 2 0 2 5 7 7 7 5 6 7 9 9 9 9 9 6 3 2 2 3 2 2 1 1 1 1 1 1 1 1 1 1 1 1 0 0
6 6 4 4 4 4 4 4 2 1 0 2 5 7 7 7 8 8 8 8 9 10 4 3 3 3 3 3 2 2 2 2 1 1 1 1 1 1 1 1 1 0 1
5 6 6 5 4 4 5 4 4 4 2 1 1 3 5 6 7 7 8 7 4 4 3 4 4 4 3 3 3 3 2 2 1 2 2 1 1 1 1 1 1 1 1
4 4 4 4 4 4 4 4 4 4 3 2 1 0 2 3 4 5 7 4 4 4 4 3 3 3 3 3 3 3 3 2 2 2 2 2 1 1 1 1 1 2 2
3 5 5 4 4 3 4 4 4 4 4 3 3 3 2 2 2 3 3 3 3 3 4 4 3 3 3 3 3 3 2 2 2 2 2 2 2 2 2 2 2 2 2
3 4 5 4 4 4 4 4 5 4 4 4 4 4 6 4 4 4 4 4 4 4 4 4 3 3 3 3 3 3 3 3 2 2 2 2 2 2 2 2 2 2 2
3 3 3 3 3 3 4 4 4 4 4 4 3 3 7 4 3 3 3 3 3 3 3 3 3 3 4 4 4 4 3 3 3 3 2 2 2 2 2 2 2 2 2
3 3 2 2 3 4 3 3 4 4 4 4 4 3 4 4 4 4 4 3 3 2 2 3 3 3 3 3 3 4 4 4 4 4 3 2 2 2 2 2 3 3 2
3 3 3 2 3 3 3 4 4 4 4 4 3 4 4 4 4 4 3 3 3 2 2 3 3 4 4 3 2 3 3 3 3 3 4 3 3 2 2 2 3 3 3
3 3 3 3 3 3 3 4 4 4 4 4 3 3 3 3 3 3 3 3 3 3 3 3 2 3 4 4 3 3 4 4 4 2 3 3 3 3 2 2 2 3 3
3 3 3 2 3 3 3 4 4 4 3 3 3 3 4 4 4 3 3 3 3 3 3 2 3 3 3 3 4 4 4 4 4 3 2 2 2 2 2 2 3 3 3
Wind_Direction
173 169 162 166 163 154 153 161 161 151 142 142 143 137 135 125 110 102 96 90 88 70 72 91 78 71 71 67 76 85 94 117 129 306 333 353 22 18 356 350 359 358 358
174 167 170 168 160 159 165 167 159 154 149 145 141 137 144 147 139 126 117 100 106 104 94 92 76 84 74 66 78 88 95 114 131 138 326 340 314 285 318 343 359 10 343
170 167 169 171 169 173 177 173 163 158 155 149 139 147 158 162 156 150 136 122 124 127 129 123 117 106 90 81 88 95 95 93 110 131 200 318 323 336 2 356 2 344 344
170 170 174 181 180 179 177 173 172 165 163 165 160 166 167 161 155 148 137 130 121 118 132 138 137 140 153 141 118 127 120 94 88 99 69 345 331 336 38 7 349 344 337
172 178 186 185 177 173 173 175 171 169 173 168 160 170 168 162 169 163 152 144 136 122 92 114 145 151 157 153 142 155 136 121 110 100 69 3 335 345 308 285 318 321 322
176 185 184 177 174 174 176 172 165 170 172 163 166 174 182 186 168 167 156 149 150 144 138 112 80 112 121 129 131 148 153 151 158 151 180 221 264 255 252 235 241 4 318
178 180 177 177 177 179 175 167 170 176 175 175 179 175 188 194 172 163 159 149 151 163 173 176 129 95 101 108 93 83 103 129 157 164 180 220 231 228 203 229 219 212 243
181 184 181 178 179 175 169 173 178 174 175 181 187 185 184 197 183 172 161 150 151 170 180 175 174 226 183 150 127 93 23 308 227 180 194 222 223 221 199 200 208 223 280
185 188 186 180 178 175 177 181 178 171 179 185 181 179 183 201 193 183 165 148 157 202 209 191 184 205 201 161 137 146 310 318 342 118 228 256 271 257 190 125 89 74 312
194 192 187 182 179 182 186 184 177 173 182 180 183 189 190 200 199 190 169 151 164 204 243 224 206 204 206 173 159 165 195 261 314 7 6 0 356 352 11 169 179 175 215
187 181 181 183 183 182 180 176 168 168 167 171 181 197 199 203 199 193 178 164 176 183 206 235 237 208 190 181 171 177 195 191 155 99 7 351 351 349 335 305 187 175 186
171 173 179 182 184 177 170 174 171 165 165 176 177 200 221 209 194 192 185 181 174 175 203 218 219 198 182 177 173 173 166 133 109 83 43 337 323 314 306 304 264 211 208
165 177 182 183 185 174 173 176 173 173 174 185 183 197 217 215 206 199 193 187 182 182 197 196 189 180 165 155 158 159 144 132 128 132 234 266 268 277 303 330 336 334 333
169 176 179 178 182 179 178 177 178 184 186 190 193 200 207 207 209 197 185 179 176 174 170 145 125 113 109 105 82 98 145 158 161 193 232 265 297 326 333 326 314 323 357
170 171 173 176 176 175 179 185 189 199 194 192 198 194 191 210 217 195 179 181 180 175 142 108 97 99 104 87 358 300 142 137 179 210 215 255 292 312 312 320 316 355 325
166 170 173 171 172 168 162 146 115 201 213 207 201 193 203 206 197 192 191 188 178 162 141 152 178 186 196 203 199 203 203 206 212 203 207 216 236 262 298 326 342 259 273
175 177 173 171 171 172 169 169 171 4 98 187 197 196 194 192 190 188 182 177 173 159 154 178 190 198 204 204 200 198 209 220 205 192 200 212 214 240 278 309 319 311 284
176 178 174 176 177 180 182 181 177 176 186 231 245 198 192 190 187 182 167 145 155 169 181 189 199 202 200 200 200 202 203 201 196 198 202 209 208 216 247 272 271 248 263
172 176 174 172 175 178 177 173 176 181 181 175 153 205 181 161 158 166 159 162 177 191 198 200 202 201 201 200 200 198 192 193 195 196 205 209 208 199 232 255 265 268 261
174 175 167 166 169 172 175 177 182 183 181 182 192 193 169 142 165 184 187 184 184 193 197 201 204 200 195 193 191 190 190 190 191 197 204 209 210 204 221 246 255 259 254
167 170 167 164 178 184 185 188 188 186 189 196 205 199 183 182 190 193 195 196 197 197 195 195 196 195 196 191 187 189 192 199 201 201 204 209 210 220 226 232 244 251 261
166 168 174 179 184 189 195 192 186 187 191 195 196 186 184 180 185 194 202 208 208 205 197 188 194 199 196 191 187 185 189 199 204 202 203 209 215 222 226 235 248 256 261
165 167 171 181 183 187 191 189 187 190 193 193 184 177 183 193 196 200 205 205 198 198 193 188 190 195 193 188 184 184 190 201 203 196 195 203 212 218 222 237 249 258 261
165 173 178 185 182 185 195 196 193 194 191 187 185 186 190 195 198 200 200 192 186 191 189 187 189 192 192 188 188 190 194 195 188 189 188 193 205 214 221 235 246 250 256
170 177 183 189 194 197 201 196 193 192 192 190 191 193 192 191 192 194 190 182 178 181 187 186 183 183 187 185 182 185 180 175 174 176 180 186 199 212 223 237 248 259 265
176 183 190 190 198 200 198 193 193 194 197 199 198 196 192 191 187 183 179 177 178 178 178 178 176 178 183 182 175 170 170 176 179 184 185 181 190 212 225 240 254 261 267